User: anonymous   Login
Location: Baix
(44.7118°N, 4.7648°E)
Time: 07:08:58
(UTC+00:00)
Language:

Cosmos 2227 Rocket - Orbit

View from above orbital plane
View from above orbital plane
View from above satellite
View from above satellite

Ground track
Ground track

The orbit data is extracted from the following two-line orbital elements,

1 22285U 92093B   20293.07933802 +.00000075 +00000-0 +63220-4 0  9999
2 22285 071.0210 173.1625 0002406 048.6582 311.4748 14.15045411435109
Epoch (UTC): 19 October 2020 01:54:14
Eccentricity: 0.0002406
inclination: 71.0210°
perigee height: 840 km
apogee height: 844 km
right ascension of ascending node: 173.1625°
argument of perigee: 48.6582°
revolutions per day: 14.15045411
mean anomaly at epoch: 311.4748°
orbit number at epoch: 43510

The dashed part of the orbit path shows where the satellite is in the earth's shadow,  

DLR